KF8LO-1 Weather Reports


Display with metric or nautical units.
time (UTC)temp
F
wind
direction
speed
MPH
gust
MPH
rain 1hr
in
rain 24hr
in
rain mn
in
humidity
%
barometer
mb
20260504160209 59 285 2.0 17.0 0.00 0.00 0.00 47
20260504150709 58 310 4.0 17.0 0.00 0.00 0.00 48
20260504150209 57 288 8.0 24.0 0.00 0.00 0.00 49
20260504141209 56 302 8.0 18.0 0.00 0.00 0.00 47
20260504140709 56 306 7.0 17.0 0.00 0.00 0.00 48
20260504140209 56 215 3.0 16.0 0.00 0.00 0.00 47
20260504130709 53 244 1.0 14.0 0.00 0.00 0.00 48
20260504130209 53 271 7.0 14.0 0.00 0.00 0.00 49
20260504120209 49 295 2.0 15.0 0.00 0.00 0.00 54
20260504110709 47 312 5.0 14.0 0.00 0.00 0.00 56
20260504110210 47 270 4.0 12.0 0.00 0.00 0.00 56
20260504100210 47 268 1.0 12.0 0.00 0.00 0.00 59
20260504081710 46 267 3.0 19.0 0.00 0.00 0.00 62
20260504081210 46 254 7.0 9.0 0.00 0.00 0.00 62
20260504080710 46 300 5.0 11.0 0.00 0.00 0.00 61
20260504080210 46 312 3.0 13.0 0.00 0.00 0.00 60
20260504070210 46 296 6.0 12.0 0.00 0.00 0.00 50
20260504060210 46 265 6.0 14.0 0.00 0.00 0.00 47
20260504050711 47 296 3.0 12.0 0.00 0.00 0.00 46
20260504050211 47 315 3.0 15.0 0.00 0.00 0.00 46
20260504045711 47 299 3.0 10.0 0.00 0.00 0.00 46
20260504045211 47 267 4.0 9.0 0.00 0.00 0.00 46
20260504044711 47 257 6.0 9.0 0.00 0.00 0.00 46
20260504044211 47 246 2.0 12.0 0.00 0.00 0.00 46
20260504043711 47 240 11.0 17.0 0.00 0.00 0.00 46
20260504043211 47 299 2.0 9.0 0.00 0.00 0.00 46
20260504042711 47 306 2.0 8.0 0.00 0.00 0.00 46
20260504042211 47 255 2.0 8.0 0.00 0.00 0.00 46
20260504041711 47 340 0.0 5.0 0.00 0.00 0.00 46
20260504041211 47 286 3.0 5.0 0.00 0.00 0.00 47
20260504040711 47 248 4.0 9.0 0.00 0.00 0.00 46
20260504040211 47 292 0.0 8.0 0.00 0.00 0.00 46
20260504035711 47 322 1.0 8.0 0.00 0.00 0.00 46
20260504035211 47 270 2.0 10.0 0.00 0.00 0.00 46
20260504034711 47 291 3.0 11.0 0.00 0.00 0.00 46
20260504034211 47 299 4.0 10.0 0.00 0.00 0.00 46
20260504033711 47 247 4.0 9.0 0.00 0.00 0.00 46
20260504033211 47 316 1.0 10.0 0.00 0.00 0.00 46
20260504032711 47 320 1.0 7.0 0.00 0.00 0.00 46
20260504032211 47 305 4.0 9.0 0.00 0.00 0.00 46
20260504031711 47 270 5.0 10.0 0.00 0.00 0.00 46
20260504031211 47 298 0.0 10.0 0.00 0.00 0.00 45
20260504030711 47 286 2.0 9.0 0.00 0.00 0.00 46
20260504030211 47 291 0.0 8.0 0.00 0.00 0.00 45
20260504025711 47 257 3.0 10.0 0.00 0.00 0.00 46
20260504025211 47 271 2.0 8.0 0.00 0.00 0.00 46
20260504024711 47 292 2.0 13.0 0.00 0.00 0.00 46
20260504024211 47 288 5.0 12.0 0.00 0.00 0.00 46
20260504023711 47 261 2.0 6.0 0.00 0.00 0.00 46
20260504023211 47 300 3.0 8.0 0.00 0.00 0.00 46
20260504022711 47 7 3.0 8.0 0.00 0.00 0.00 46
20260504022211 47 320 2.0 8.0 0.00 0.00 0.00 46
20260504021711 47 260 1.0 10.0 0.00 0.00 0.00 46
20260504021211 47 295 4.0 10.0 0.00 0.00 0.00 46
20260504020711 47 285 4.0 9.0 0.00 0.00 0.00 46
20260504020211 47 303 4.0 13.0 0.00 0.00 0.00 45
20260504015711 47 274 3.0 8.0 0.00 0.00 0.00 45
20260504015213 47 299 1.0 9.0 0.00 0.00 0.00 46
20260504014711 47 286 4.0 8.0 0.00 0.00 0.00 45
20260504014211 47 296 5.0 10.0 0.00 0.00 0.00 45
20260504013711 47 257 7.0 9.0 0.00 0.00 0.00 45
20260504013211 47 291 6.0 11.0 0.00 0.00 0.00 45
20260504012711 46 285 9.0 10.0 0.00 0.00 0.00 46
20260504012211 47 253 6.0 11.0 0.00 0.00 0.00 45
20260504011711 47 310 4.0 10.0 0.00 0.00 0.00 45
20260504011211 46 326 3.0 8.0 0.00 0.00 0.00 45
20260504010711 47 306 3.0 8.0 0.00 0.00 0.00 45
20260504010211 47 322 5.0 8.0 0.00 0.00 0.00 44
20260504005711 47 291 4.0 10.0 0.00 0.00 0.00 44
20260504005211 47 206 4.0 10.0 0.00 0.00 0.00 44
20260504004711 47 344 7.0 7.0 0.00 0.00 0.00 44
20260504004211 47 288 5.0 9.0 0.00 0.00 0.00 44
20260504003711 47 285 3.0 7.0 0.00 0.00 0.00 44
20260504003211 47 285 3.0 7.0 0.00 0.00 0.00 44
20260504002711 47 296 3.0 9.0 0.00 0.00 0.00 43
20260504002211 48 322 5.0 9.0 0.00 0.00 0.00 43
20260504001711 48 262 7.0 8.0 0.00 0.00 0.00 42
20260504001212 48 289 2.0 10.0 0.00 0.00 0.00 42
20260504000712 48 296 4.0 6.0 0.00 0.00 0.00 41
20260504000212 48 322 3.0 8.0 0.00 0.00 0.00 41
20260503235712 48 344 2.0 11.0 0.00 0.00 0.00 40
20260503235212 49 298 6.0 10.0 0.00 0.00 0.00 40
20260503234712 49 265 6.0 11.0 0.00 0.00 0.00 39
20260503234212 50 274 6.0 11.0 0.00 0.00 0.00 39
20260503233712 50 306 6.0 9.0 0.00 0.00 0.00 39
20260503233212 50 299 5.0 14.0 0.00 0.00 0.00 37
20260503232712 51 309 4.0 7.0 0.00 0.00 0.00 38
20260503232212 51 307 5.0 10.0 0.00 0.00 0.00 38
20260503231712 51 320 6.0 10.0 0.00 0.00 0.00 38
20260503231212 51 306 4.0 9.0 0.00 0.00 0.00 37
20260503230712 51 215 2.0 11.0 0.00 0.00 0.00 37
20260503230212 51 272 5.0 12.0 0.00 0.00 0.00 37
20260503225712 51 302 2.0 13.0 0.00 0.00 0.00 38
20260503225212 51 319 8.0 12.0 0.00 0.00 0.00 36
20260503224712 51 286 6.0 12.0 0.00 0.00 0.00 37
20260503224212 51 257 3.0 10.0 0.00 0.00 0.00 38
20260503223712 51 331 8.0 11.0 0.00 0.00 0.00 38
20260503223212 51 298 7.0 12.0 0.00 0.00 0.00 37
20260503222712 51 299 7.0 13.0 0.00 0.00 0.00 38
20260503222212 51 284 6.0 13.0 0.00 0.00 0.00 37
20260503221712 51 268 4.0 11.0 0.00 0.00 0.00 38
20260503221212 51 288 1.0 12.0 0.00 0.00 0.00 39
20260503220712 51 324 7.0 13.0 0.00 0.00 0.00 38
20260503220212 51 306 3.0 9.0 0.00 0.00 0.00 38
20260503215712 51 300 3.0 13.0 0.00 0.00 0.00 37
20260503215212 51 296 5.0 16.0 0.00 0.00 0.00 37
20260503214712 50 307 5.0 13.0 0.00 0.00 0.00 36
20260503214212 51 272 6.0 8.0 0.00 0.00 0.00 38
20260503213712 51 306 5.0 12.0 0.00 0.00 0.00 38
20260503213212 51 322 5.0 12.0 0.00 0.00 0.00 37
20260503212712 51 319 4.0 10.0 0.00 0.00 0.00 39
20260503212212 50 337 4.0 10.0 0.00 0.00 0.00 39
20260503211712 51 324 4.0 11.0 0.00 0.00 0.00 39
20260503211212 51 255 8.0 13.0 0.00 0.00 0.00 37
20260503210712 51 307 9.0 13.0 0.00 0.00 0.00 38
20260503210212 50 253 3.0 12.0 0.00 0.00 0.00 39
20260503205712 50 303 7.0 14.0 0.00 0.00 0.00 40
20260503205212 50 223 5.0 12.0 0.00 0.00 0.00 39
20260503204712 50 278 9.0 12.0 0.00 0.00 0.00 40
20260503204212 50 274 5.0 13.0 0.00 0.00 0.00 39
20260503203712 50 250 6.0 14.0 0.00 0.00 0.00 39
20260503203212 50 240 8.0 11.0 0.00 0.00 0.00 40
20260503202712 49 272 9.0 12.0 0.00 0.00 0.00 41
20260503202212 49 303 4.0 17.0 0.00 0.00 0.00 38
20260503201712 49 322 10.0 15.0 0.00 0.00 0.00 43
20260503201212 49 296 10.0 12.0 0.00 0.00 0.00 40
20260503200712 49 306 6.0 15.0 0.00 0.00 0.00 43
20260503200212 49 296 6.0 14.0 0.00 0.00 0.00 40
20260503195712 48 271 8.0 15.0 0.00 0.00 0.00 41
20260503195212 48 302 9.0 18.0 0.00 0.00 0.00 40
20260503194712 49 288 7.0 15.0 0.00 0.00 0.00 40
20260503194212 49 313 6.0 18.0 0.00 0.00 0.00 39
20260503193712 49 331 10.0 12.0 0.00 0.00 0.00 43
20260503193212 48 289 1.0 11.0 0.00 0.00 0.00 44
20260503192712 48 265 6.0 12.0 0.00 0.00 0.00 44
20260503192212 48 299 9.0 17.0 0.00 0.00 0.00 42
20260503191712 48 268 5.0 11.0 0.00 0.00 0.00 47
20260503191212 47 324 8.0 9.0 0.00 0.00 0.00 44
20260503190712 47 293 6.0 13.0 0.00 0.00 0.00 43
20260503190212 47 299 7.0 15.0 0.00 0.00 0.00 42
20260503185712 47 357 8.0 12.0 0.00 0.00 0.00 41
20260503185212 47 358 4.0 9.0 0.00 0.00 0.00 44
20260503184713 47 246 8.0 9.0 0.00 0.00 0.00 46
20260503184213 46 322 5.0 14.0 0.00 0.00 0.00 45
20260503183713 45 289 11.0 14.0 0.00 0.00 0.00 47
20260503183213 45 341 13.0 16.0 0.00 0.00 0.00 42
20260503182713 46 291 10.0 16.0 0.00 0.00 0.00 42
20260503182213 46 310 5.0 12.0 0.00 0.00 0.00 47
20260503181713 46 309 6.0 11.0 0.00 0.00 0.00 45
20260503181213 46 270 6.0 10.0 0.00 0.00 0.00 46
20260503180713 46 14 6.0 15.0 0.00 0.00 0.00 45
20260503180213 46 340 7.0 18.0 0.00 0.00 0.00 46
20260503175713 46 326 4.0 12.0 0.00 0.00 0.00 44
20260503175213 46 344 4.0 10.0 0.00 0.00 0.00 49
20260503174713 45 285 6.0 12.0 0.00 0.00 0.00 50
20260503174213 45 337 9.0 15.0 0.00 0.00 0.00 47
20260503173713 44 309 5.0 10.0 0.00 0.00 0.00 47
20260503173213 43 60 7.0 13.0 0.00 0.00 0.00 43
20260503172713 44 350 8.0 13.0 0.00 0.00 0.00 51
20260503172213 44 293 6.0 15.0 0.00 0.00 0.00 49
20260503171713 44 15 2.0 11.0 0.00 0.00 0.00 49
20260503171213 44 319 8.0 13.0 0.00 0.00 0.00 51
20260503170713 43 317 8.0 13.0 0.00 0.00 0.00 50
20260503170213 43 262 4.0 10.0 0.00 0.00 0.00 49